GFSNGP_925_rhum_252.txt.gz
RH
55 76 60 61 66 62 70 81 85 81 84 86 70 66 61 57 55 57 51 52 54 56 53 52 52 54 54 55 58 62 63 67 74 76 84 96 93 98 94 81 86 82 77 73
66 61 65 87 80 77 62 72 72 72 79 73 57 54 59 60 58 62 56 56 56 56 55 56 56 58 57 58 60 63 64 69 71 71 67 79 89 91 94 86 62 93 79 66
74 64 74 93 89 85 65 74 83 89 93 62 65 63 65 62 65 63 64 60 60 59 59 60 61 61 61 62 64 66 69 72 72 77 73 66 64 71 82 92 61 84 90 79
82 52 82 80 52 49 55 82 75 73 66 68 71 66 60 52 62 68 65 64 62 62 63 66 65 63 63 65 66 71 72 72 73 76 79 74 68 66 59 61 63 69 78 83
82 81 73 90 65 68 68 72 84 81 75 72 67 66 47 44 59 66 65 66 66 66 68 68 68 67 67 70 73 74 71 74 76 80 81 81 74 66 60 59 62 56 54 86
73 96 82 98 67 55 61 96 73 75 80 85 80 88 64 62 66 66 65 68 68 71 71 71 72 72 78 77 74 74 74 76 79 82 84 89 80 69 60 58 59 53 57 78
88 92 89 84 76 55 67 76 74 78 86 89 91 84 76 68 66 66 69 70 74 75 75 76 77 83 80 78 79 77 78 80 84 84 92 94 81 68 62 59 57 53 56 81
87 94 92 77 72 82 93 83 80 89 78 89 82 77 73 67 68 71 73 77 76 78 80 85 84 84 88 89 84 86 87 87 89 92 92 95 87 75 66 60 57 57 73 82
84 74 62 58 88 87 82 94 88 92 83 85 88 79 75 75 78 75 79 79 82 92 90 85 85 88 95 92 94 95 95 94 95 96 97 97 91 79 69 62 63 66 88 76
78 73 75 55 59 62 64 77 81 87 92 90 93 81 87 80 77 82 83 82 93 91 91 89 88 92 94 95 95 98 100 98 98 94 91 96 88 76 69 64 65 74 87 74
89 71 70 52 65 71 79 73 75 79 81 90 93 85 85 86 88 87 84 90 88 91 93 94 95 95 92 96 100 100 99 97 95 96 96 97 84 73 71 71 75 78 97 92
96 82 96 87 77 74 91 84 80 87 87 81 83 92 92 87 86 90 95 89 92 90 91 94 94 94 96 95 98 100 97 92 88 86 94 97 88 73 64 78 87 92 96 99
96 95 88 73 65 71 76 76 84 86 82 85 88 94 94 94 93 91 88 89 94 96 96 94 96 98 96 98 100 99 99 98 97 90 94 100 93 75 77 74 86 99 99 87
90 94 79 69 88 74 76 84 84 82 78 82 90 94 95 91 86 87 91 97 96 97 96 94 97 96 97 98 100 100 99 99 98 99 96 96 96 80 78 80 88 93 86 76
80 84 86 78 76 74 83 85 86 81 82 86 87 92 94 93 92 95 97 97 99 92 90 96 96 97 99 98 98 98 98 98 97 97 98 94 83 80 84 94 100 98 91 71
88 75 73 81 76 81 88 88 89 86 88 91 90 92 96 95 95 94 95 98 97 94 97 97 98 98 97 97 97 96 97 99 99 96 98 99 94 93 99 100 99 98 90 90
97 87 89 88 89 91 92 93 96 95 95 95 96 97 97 94 90 91 95 97 99 96 97 99 98 97 97 98 96 98 97 98 99 98 99 96 98 95 98 100 99 100 99 99
95 97 97 98 97 96 94 96 98 100 100 100 100 98 97 96 96 97 98 100 96 91 95 99 98 96 98 98 96 98 98 97 97 98 100 100 100 99 99 100 100 99 99 98
93 98 96 96 98 100 100 100 100 100 96 100 99 97 99 99 100 99 99 98 95 94 95 97 98 100 98 98 97 99 99 99 98 98 97 98 97 97 97 97 97 97 97 97
93 92 94 96 96 98 98 98 100 99 93 96 96 98 100 97 98 100 98 95 95 99 97 100 98 99 98 96 99 98 98 98 98 98 98 97 97 98 98 98 97 96 96 96
95 96 96 98 98 93 95 94 100 98 91 94 99 100 100 94 96 98 96 93 96 97 98 98 98 99 97 95 97 100 98 98 98 98 98 98 97 97 98 97 97 96 96 96
97 100 96 98 99 94 92 92 98 94 92 93 93 96 94 93 95 96 92 97 100 99 94 99 98 98 98 90 94 99 100 99 99 98 98 98 97 97 97 96 96 96 96 96
93 92 95 99 97 97 92 91 94 95 92 95 97 99 100 98 98 99 94 93 96 98 93 98 98 100 98 92 96 96 97 98 98 98 98 96 97 96 96 96 96 95 95 96
85 84 93 92 90 89 99 94 95 91 89 90 91 93 98 100 87 96 91 99 100 98 100 100 100 100 90 96 99 98 98 97 97 97 96 99 97 96 96 97 96 96 95 95
83 86 96 90 91 98 100 99 97 94 94 90 91 89 92 96 100 99 92 88 93 98 90 96 100 98 94 95 97 98 98 98 98 97 97 97 97 97 97 96 97 97 96 96
88 96 98 88 92 97 100 100 100 98 100 98 96 90 92 91 98 94 93 86 85 87 85 91 99 95 96 96 96 96 96 96 95 97 97 98 98 99 97 97 99 98 99 99
87 94 96 88 92 100 100 99 100 100 96 100 95 90 94 92 95 96 93 86 87 88 89 89 90 96 97 96 95 96 95 96 97 98 97 97 98 97 98 97 97 97 96 96

GFSNGP_925_rhum_255.txt.gz
RH
54 77 66 70 79 69 72 82 95 81 94 95 85 68 61 57 55 55 58 50 56 57 59 60 61 62 63 62 64 65 67 71 79 96 97 97 97 97 96 96 98 97 99 100
66 66 65 92 85 89 70 65 81 75 78 79 63 58 62 63 60 60 54 60 60 60 64 64 65 67 65 66 67 68 69 74 73 78 94 97 97 97 97 93 97 95 100 98
75 72 82 97 91 79 77 65 84 92 91 62 72 70 69 66 63 60 63 65 65 65 67 69 70 70 70 70 71 72 75 76 73 76 79 89 97 96 96 97 95 95 98 96
85 52 77 76 56 53 56 75 76 76 71 72 74 66 62 56 58 67 69 70 68 69 71 72 74 73 74 74 78 80 77 75 75 78 81 85 94 95 92 94 97 97 96 95
80 85 65 93 69 76 80 72 80 75 75 73 68 70 47 42 60 69 69 68 70 72 75 76 76 77 78 84 85 80 77 77 78 80 84 87 92 95 85 79 85 88 84 83
76 96 92 91 74 63 72 97 73 70 80 88 83 90 63 62 68 68 68 71 74 78 78 78 80 83 90 89 85 85 83 83 84 85 88 89 96 98 83 72 68 61 55 67
92 95 79 88 79 64 70 74 77 75 88 89 92 84 77 69 68 68 72 74 76 78 81 83 87 89 88 88 90 88 91 92 93 90 91 95 95 97 87 76 68 59 59 75
90 96 94 83 71 75 78 86 79 88 80 91 83 77 72 67 69 72 74 76 79 82 88 88 88 92 96 94 89 95 98 98 98 96 96 97 100 99 88 76 68 61 63 74
83 68 64 66 88 90 89 94 89 92 86 85 88 79 74 75 74 74 77 81 81 95 89 86 88 97 96 92 100 100 100 100 100 99 97 94 96 100 91 75 70 66 67 72
82 72 79 63 62 64 68 86 84 83 91 88 93 81 84 78 78 82 83 81 90 89 90 90 93 97 98 99 99 100 100 100 99 99 94 89 89 97 88 75 72 70 70 91
90 70 74 57 59 74 83 77 76 78 81 84 90 85 84 86 88 88 86 89 90 89 93 93 96 97 97 97 98 100 100 100 98 97 95 91 90 94 85 79 82 90 83 96
95 83 96 87 77 72 86 80 80 88 88 82 84 91 91 87 89 90 94 94 93 91 92 94 95 96 96 96 97 98 98 94 94 95 94 90 96 92 79 79 87 93 89 95
96 94 93 83 71 68 82 82 86 90 87 89 88 92 95 94 93 93 90 91 94 96 96 97 96 98 96 96 97 98 98 98 99 94 96 98 99 98 90 69 67 78 99 99
90 98 80 70 92 81 80 86 89 86 81 86 88 91 94 91 86 87 93 97 97 97 96 95 97 96 98 99 98 97 97 98 97 97 98 97 96 99 94 87 86 90 90 86
81 88 94 86 80 80 83 89 90 85 85 88 91 90 92 94 93 95 97 98 100 92 91 96 96 98 98 100 99 98 98 97 97 95 98 98 99 97 91 97 98 100 92 77
88 79 78 85 80 83 89 92 94 89 90 93 94 95 98 97 95 94 96 98 98 95 96 97 97 97 97 98 98 98 98 100 97 92 97 100 99 99 100 99 100 99 100 100
98 87 88 90 89 94 97 96 98 96 97 98 100 100 98 97 92 93 97 97 100 97 96 98 99 97 97 97 97 98 98 98 99 100 100 100 100 100 100 99 99 100 100 99
98 97 97 98 97 97 95 98 99 100 100 100 100 99 99 99 98 99 99 98 96 91 90 100 98 96 97 98 96 97 98 98 98 98 98 97 97 98 99 97 97 97 98 99
95 97 96 97 98 100 99 99 100 100 97 99 100 98 98 97 99 100 98 98 95 94 94 97 99 98 98 98 96 98 97 97 98 98 97 98 97 96 98 97 98 98 98 97
95 94 96 96 95 97 98 97 99 99 95 98 97 94 96 93 93 98 96 96 95 100 98 99 98 98 97 96 99 98 98 98 97 98 98 98 98 98 98 99 98 98 98 97
96 96 96 97 96 93 96 99 100 100 95 98 100 100 100 95 91 98 99 95 94 98 98 90 98 98 96 95 91 98 99 100 99 97 98 98 98 97 97 97 97 98 97 96
95 96 96 98 100 93 91 97 98 96 93 94 93 96 96 92 92 100 93 99 100 100 95 93 98 98 98 92 93 98 97 98 98 98 98 97 97 97 97 96 96 96 96 96
93 90 92 97 98 94 90 92 93 95 95 97 96 97 99 99 98 99 96 94 99 99 94 96 99 100 98 92 96 97 99 98 97 97 97 97 97 97 97 97 96 96 95 96
87 85 95 96 92 92 93 91 91 90 92 91 90 94 100 100 91 97 96 97 100 100 100 100 100 100 90 94 96 97 97 97 98 97 96 97 96 97 96 97 96 96 96 95
86 89 98 93 92 96 95 97 95 90 93 88 88 90 92 95 100 100 93 93 88 97 84 94 100 99 94 96 96 96 96 96 97 97 98 98 98 98 98 98 98 99 98 99
88 91 98 90 92 98 96 100 100 96 100 97 97 90 92 92 96 96 93 90 86 85 85 87 97 98 97 96 96 96 96 95 95 96 98 97 98 97 98 98 98 99 99 98
88 92 97 87 89 97 99 99 100 100 95 100 97 91 95 93 94 98 95 84 87 89 89 90 91 93 99 96 95 96 96 96 96 97 96 96 97 98 97 98 97 97 95 95

GFSNGP_925_rhum_258.txt.gz
RH
56 62 72 76 77 77 80 88 95 79 83 74 88 69 63 60 58 57 56 50 57 62 63 67 68 69 69 70 71 72 74 74 76 81 96 95 97 97 97 97 97 99 99 94
63 71 67 89 87 83 89 68 75 82 87 77 62 58 64 65 60 61 56 61 63 63 68 70 72 71 73 74 75 77 78 80 78 76 88 92 96 97 98 97 98 97 97 99
74 65 77 92 94 78 78 61 78 97 91 63 70 70 69 64 63 61 67 69 69 71 72 74 75 78 78 78 80 81 85 82 78 78 82 86 95 96 97 98 97 98 95 98
86 57 77 66 58 59 64 56 81 77 72 69 72 66 62 58 52 71 75 78 80 80 78 78 80 79 80 83 86 88 86 82 82 82 83 84 91 94 97 97 97 98 96 96
83 88 56 94 74 79 86 73 81 81 74 74 69 72 50 39 58 68 69 72 82 84 81 81 82 83 88 92 91 88 86 86 88 90 90 89 90 95 99 97 97 94 97 93
80 97 97 82 79 62 77 96 77 72 82 88 82 90 63 63 69 69 69 72 76 80 80 82 84 91 94 91 90 90 88 91 94 95 95 94 94 99 99 99 95 93 95 97
93 97 78 89 80 69 75 77 76 77 87 90 92 82 75 68 72 69 71 73 76 80 82 87 87 89 93 91 92 93 96 97 98 98 98 97 96 96 98 100 92 81 80 94
90 99 92 83 68 77 80 82 78 87 80 90 83 77 72 68 68 71 73 77 79 82 90 87 86 91 95 92 90 97 99 100 100 100 99 94 98 97 100 99 84 73 73 81
80 68 68 67 77 92 92 96 89 92 84 85 89 80 75 74 74 75 78 79 80 93 89 86 87 94 96 93 100 98 100 98 99 99 98 95 96 97 100 95 85 78 78 82
84 67 75 73 75 62 71 86 81 79 84 87 93 84 84 79 79 81 82 81 91 94 90 90 94 97 97 97 99 100 98 98 99 100 97 94 88 94 100 96 86 88 89 83
92 70 75 63 63 78 85 81 76 79 84 87 92 86 84 87 87 89 86 92 92 93 94 94 96 96 98 98 99 99 97 95 96 98 97 97 93 92 98 94 94 94 96 96
94 82 95 88 79 77 89 85 83 90 90 84 86 92 92 88 88 92 94 94 93 92 94 95 96 96 97 99 99 99 98 93 95 98 96 97 97 92 83 96 85 86 88 96
94 96 97 90 82 73 88 84 88 94 91 94 91 94 95 94 93 92 90 92 95 96 96 97 96 97 98 98 99 98 98 98 99 96 97 98 96 100 100 79 70 79 92 97
91 97 85 73 94 88 84 86 90 89 87 88 90 93 94 93 89 88 93 97 97 97 96 96 97 96 97 98 99 99 98 99 98 98 98 97 97 97 100 97 95 95 92 85
85 88 92 93 83 81 84 90 91 90 89 91 92 94 95 96 94 96 98 99 100 94 92 97 96 97 97 98 98 98 99 100 98 93 96 98 97 98 97 98 98 99 98 84
92 87 80 88 83 81 91 92 95 91 94 95 95 95 99 100 98 94 96 98 98 96 97 97 96 97 97 98 96 98 98 99 98 98 98 98 98 99 98 98 98 98 97 99
100 93 91 88 89 93 94 97 100 100 99 99 100 100 99 99 96 95 97 97 99 98 95 98 100 98 96 97 96 98 98 98 98 97 98 99 100 99 99 99 98 97 99 97
100 98 98 99 98 96 95 99 100 100 100 100 100 100 100 99 99 100 100 96 93 89 86 99 97 96 98 97 96 97 98 97 97 98 100 100 98 100 99 99 99 98 98 98
93 99 96 98 97 99 100 99 100 99 97 100 100 100 99 98 99 98 97 96 96 96 92 97 100 97 95 99 96 96 98 98 97 98 97 97 97 97 99 98 98 98 97 97
92 92 93 95 95 97 98 96 99 98 96 100 98 95 96 92 96 96 97 98 96 100 98 97 95 97 94 96 98 94 97 98 98 98 97 98 98 98 97 98 97 97 97 97
94 95 95 96 96 94 96 98 100 98 98 100 100 100 100 94 96 95 100 98 95 97 100 88 98 98 96 96 90 94 97 98 98 98 98 98 97 97 97 96 96 96 96 96
94 95 94 94 97 95 90 94 98 97 96 95 93 96 98 96 93 95 93 99 100 100 97 91 98 98 98 94 93 96 97 97 98 97 98 99 99 98 98 97 96 96 96 96
93 92 91 92 99 95 91 90 96 97 97 96 96 97 100 98 97 100 96 94 99 98 92 96 99 100 98 90 95 98 97 98 98 97 97 97 97 98 97 98 98 96 95 96
91 87 90 96 96 93 94 88 93 91 94 93 92 95 100 100 88 96 100 100 100 100 98 100 100 100 91 92 94 95 96 96 98 97 98 97 98 98 98 98 99 99 98 97
90 89 92 99 94 93 96 93 96 91 92 91 89 90 94 97 100 100 96 89 95 100 88 91 100 100 92 94 96 96 96 96 96 96 97 97 97 98 98 99 98 100 99 99
88 88 93 98 93 96 97 99 100 95 100 99 95 92 93 93 93 97 96 90 85 92 88 89 97 96 91 94 96 96 96 95 94 96 96 96 96 97 98 98 96 95 97 98
89 90 90 94 87 93 97 99 98 100 96 98 100 91 96 94 93 97 97 93 90 86 88 87 92 97 99 91 91 95 96 96 96 97 96 96 96 96 97 97 97 97 97 95

GFSNGP_925_rhum_261.txt.gz
RH
58 61 66 73 72 80 88 84 93 75 83 70 79 66 58 56 56 54 53 51 56 60 63 67 70 71 73 74 77 78 80 81 82 83 82 83 96 96 96 98 97 98 97 96
62 63 71 85 86 84 84 76 81 76 75 72 59 53 58 62 58 58 57 64 63 63 67 71 74 74 76 79 80 82 84 85 85 83 81 82 95 100 97 95 96 95 96 97
71 59 62 86 92 82 80 64 67 94 86 66 65 65 67 64 60 65 72 72 70 71 74 77 78 79 81 82 84 87 89 87 85 83 86 85 89 96 97 97 98 96 96 96
82 54 67 58 62 62 68 64 75 77 75 68 71 67 61 56 53 80 82 81 82 82 84 80 80 80 83 86 91 92 89 86 85 85 88 90 91 94 97 97 98 97 96 95
81 81 52 92 75 77 87 72 81 84 77 75 69 70 46 40 57 64 68 76 88 89 85 85 80 82 92 93 90 90 88 86 88 92 92 92 90 94 97 97 97 97 97 95
79 93 92 68 71 62 78 94 78 77 84 88 83 86 62 60 67 71 81 82 86 89 84 79 83 90 91 90 90 90 89 92 96 96 95 95 94 96 98 100 99 97 97 90
93 94 74 73 77 71 81 75 82 78 87 89 92 83 75 68 67 70 74 76 79 79 78 84 86 90 94 90 90 92 97 98 97 96 97 98 96 96 99 100 98 98 99 94
90 96 79 78 68 78 82 87 80 89 83 91 84 77 72 67 69 74 77 80 78 80 89 86 89 96 94 92 95 99 99 99 98 98 98 95 97 98 99 98 99 93 94 93
79 63 69 69 72 90 86 99 92 92 83 85 88 80 75 75 75 75 80 80 80 92 90 84 88 97 95 93 98 98 98 97 98 97 97 97 100 99 98 98 100 97 97 98
84 66 68 75 80 64 72 86 83 79 83 85 93 83 83 79 78 85 84 80 94 94 91 91 95 97 97 97 98 98 98 97 96 96 96 96 96 99 98 100 100 96 97 99
90 71 74 74 65 76 82 86 78 81 84 86 91 86 84 86 89 89 86 92 93 94 94 94 96 96 95 97 98 98 96 96 96 96 100 100 100 98 100 97 99 98 99 98
89 77 91 86 78 80 92 86 85 89 90 85 87 91 91 89 90 91 95 94 93 92 95 95 96 96 97 98 98 98 96 95 98 99 98 100 100 95 86 96 93 88 88 96
93 95 95 90 90 78 92 87 88 96 92 99 90 94 96 95 92 92 90 92 96 97 97 97 96 97 97 98 98 97 97 98 99 100 100 100 98 99 96 77 84 95 98 98
90 97 87 71 92 94 85 88 90 89 86 89 93 94 93 92 91 90 93 98 98 98 97 96 97 95 97 98 99 98 98 98 98 98 98 97 97 98 100 98 96 98 92 100
92 89 93 91 92 83 82 90 91 89 88 93 96 93 94 96 95 97 98 99 100 95 93 97 97 98 98 99 98 97 98 98 98 97 99 100 99 98 98 99 97 95 94 95
92 90 85 85 84 82 89 92 96 90 95 97 97 98 100 100 99 97 97 99 98 97 98 97 99 98 98 100 97 98 99 97 97 98 98 98 98 99 98 99 97 98 98 100
100 94 94 87 87 93 96 96 97 98 98 100 100 100 99 99 97 96 97 97 96 97 95 100 100 98 99 98 96 98 99 98 96 98 98 98 98 98 99 99 98 98 100 99
98 97 97 98 97 97 96 97 99 100 100 100 100 100 99 98 100 100 100 94 90 87 86 93 97 98 99 97 95 96 98 98 98 97 99 98 98 99 99 99 99 99 99 98
92 96 96 98 97 100 100 99 98 98 97 100 100 100 99 98 99 98 94 94 95 97 92 96 100 96 94 99 97 93 99 100 99 98 97 97 97 98 98 98 99 99 98 98
90 91 94 94 93 97 99 96 98 98 96 100 100 96 98 93 94 95 95 98 96 100 98 95 93 98 92 96 98 92 96 100 100 100 97 100 98 100 99 99 98 98 97 98
91 94 95 94 94 93 95 97 99 99 97 99 100 100 100 95 95 96 97 100 94 96 100 89 94 98 94 96 89 93 96 99 99 100 100 100 100 100 100 98 98 99 97 96
94 95 94 92 95 95 91 93 96 98 96 96 96 98 99 94 92 91 92 98 100 100 96 92 95 98 98 94 93 93 95 98 100 98 98 100 100 100 100 99 99 98 98 98
92 93 92 90 97 97 90 91 95 97 97 97 99 98 100 99 98 100 98 96 100 98 98 97 98 100 99 91 94 95 94 95 99 98 97 97 98 99 98 99 100 99 98 99
89 89 89 92 96 94 92 88 91 92 95 95 95 97 100 100 88 96 100 98 100 100 100 100 100 100 96 92 94 95 95 94 97 96 97 99 97 98 99 99 100 100 99 97
88 90 89 92 98 94 94 92 93 94 91 91 91 92 95 98 100 99 100 96 95 99 86 93 100 100 87 91 96 96 96 95 96 97 96 97 97 96 96 98 98 99 97 98
90 89 87 93 98 93 96 96 100 94 100 96 92 94 93 95 94 98 99 94 92 88 84 84 96 98 94 91 92 96 96 95 93 96 97 96 96 96 97 97 96 97 97 97
95 96 91 92 85 89 94 99 97 97 96 94 99 92 95 96 95 93 97 93 93 93 90 87 85 93 100 95 90 91 94 95 96 96 96 96 96 97 96 96 97 97 97 93

GFSNGP_925_rhum_267.txt.gz
RH
27 31 33 36 37 42 47 46 66 52 47 35 37 37 34 32 31 33 32 34 38 39 42 46 49 52 55 59 61 60 61 64 68 69 71 72 76 80 83 88 90 91 92 93
39 29 29 40 34 34 45 42 39 37 40 29 32 32 36 36 36 34 37 41 43 45 51 54 56 57 62 64 62 63 70 73 73 70 70 71 72 77 81 85 88 94 96 95
48 27 30 43 39 41 46 40 39 50 41 36 40 41 42 40 35 39 45 46 48 52 56 58 58 63 64 63 69 73 73 70 70 70 72 72 74 79 82 83 87 94 95 97
52 37 50 58 40 41 46 41 31 34 40 42 44 42 40 31 39 46 46 48 53 56 58 59 63 64 70 78 76 78 77 74 73 75 78 78 80 82 82 82 86 93 96 97
51 38 28 61 48 47 54 48 37 53 48 46 45 44 32 31 40 43 44 47 52 55 57 62 65 77 89 86 84 85 82 82 84 86 90 86 83 86 85 84 87 93 96 98
42 61 54 46 46 42 45 61 47 51 53 58 57 71 45 42 45 46 49 53 55 58 58 63 80 86 92 90 90 89 92 93 95 96 95 93 88 88 86 86 89 96 98 97
45 51 38 40 44 44 60 66 51 51 56 65 73 58 49 47 48 48 52 55 59 58 61 72 80 92 92 91 92 95 97 97 97 97 96 93 90 86 92 90 92 97 98 98
40 50 56 40 44 60 67 57 54 56 56 66 58 53 50 48 49 52 57 60 61 65 72 71 81 95 93 89 93 97 97 97 98 98 98 92 89 92 92 96 97 96 97 97
49 47 40 39 47 41 51 62 57 61 58 60 62 59 54 52 54 58 61 65 67 73 71 72 80 93 95 93 97 97 97 96 97 98 95 93 96 94 93 93 90 91 97 96
68 40 38 38 39 47 46 53 53 53 58 61 70 62 60 56 61 66 70 70 79 75 80 87 88 91 96 96 97 97 97 94 95 96 98 97 94 88 92 94 89 86 95 97
57 40 40 43 44 47 52 54 54 57 60 65 65 66 61 66 72 74 73 84 75 79 87 87 88 94 92 97 97 96 95 93 93 98 98 91 86 83 90 89 90 97 98 97
55 48 65 57 50 52 61 62 62 66 76 67 66 69 70 76 76 78 93 79 82 85 91 92 95 95 95 97 98 97 95 93 96 97 97 98 98 95 95 97 97 97 98 99
61 65 62 55 54 54 62 65 67 78 76 80 73 72 76 82 81 88 75 80 91 95 95 95 96 96 94 98 98 97 97 97 96 95 96 97 97 98 96 88 89 91 94 98
51 72 70 52 63 66 67 69 70 68 65 67 69 71 73 77 80 81 85 91 95 93 92 91 98 95 98 99 100 98 98 96 97 97 97 97 97 97 97 96 94 92 97 98
51 59 70 65 64 64 66 68 69 67 66 70 71 70 74 88 90 93 93 92 96 95 92 97 99 97 98 100 100 98 98 97 97 97 98 97 97 96 96 96 96 95 89 92
61 59 59 60 60 61 66 72 79 75 75 76 75 82 90 90 89 87 88 95 100 97 100 100 100 100 100 100 100 100 99 96 96 97 96 96 96 95 94 94 94 93 91 97
86 74 71 76 72 74 76 78 82 83 81 81 89 94 94 90 90 90 95 97 98 96 100 99 100 100 98 100 99 100 100 100 93 97 96 96 95 96 96 94 95 96 97 98
84 85 88 91 92 90 85 83 82 85 93 95 96 99 98 100 100 100 97 98 90 98 92 93 97 96 100 99 97 100 100 100 97 97 94 95 94 95 95 95 94 95 96 97
87 92 91 95 96 94 90 87 91 94 96 100 100 100 100 98 98 98 95 100 99 98 91 98 96 97 100 100 97 100 100 100 96 96 98 89 91 93 96 96 95 94 94 95
82 85 90 90 86 90 93 93 97 100 98 100 100 100 99 92 93 94 94 100 95 98 98 97 88 94 100 97 100 100 100 100 99 98 95 92 95 95 94 90 92 93 95 95
87 91 91 91 95 94 96 96 99 98 94 97 100 100 100 93 94 100 100 95 95 97 94 96 93 97 96 97 98 100 100 100 100 99 100 99 98 97 96 98 90 94 94 98
84 87 89 90 94 94 90 93 93 96 96 95 95 96 98 99 100 98 92 96 99 99 98 91 93 98 93 99 99 100 100 100 100 100 100 100 100 100 100 99 98 94 95 98
85 85 88 90 91 92 92 89 88 94 96 97 99 100 100 100 100 97 94 92 95 96 98 97 96 94 99 90 100 99 100 100 100 100 100 100 100 98 99 100 98 100 98 96
84 86 88 90 92 95 99 94 93 96 96 96 100 99 100 98 94 97 98 100 100 98 99 98 98 98 100 99 100 98 100 100 98 100 100 100 100 99 98 97 98 98 98 100
89 94 96 98 99 91 91 95 94 88 90 88 89 92 97 99 100 99 100 100 99 100 100 98 100 100 99 100 100 97 98 100 99 97 98 98 99 99 98 98 98 97 98 99
97 98 94 96 97 94 90 86 85 82 84 83 83 87 94 98 100 99 99 100 96 98 95 97 100 100 100 99 100 100 96 97 100 98 99 96 96 97 97 98 97 97 99 98
97 96 94 92 90 91 85 87 92 86 88 91 91 90 95 98 100 100 100 100 98 94 94 96 99 100 100 99 95 100 98 95 99 100 98 96 96 96 97 97 97 97 98 98